Location: Kott?ru
(16.6209°N, 80.6208°E)
Time: 04:35:14
(UTC+00:00)

Hubble Space Telescope - Pass Details

Date: 07 February 2023
Orbit: 527 x 530 km, 28.5° (Epoch: 27 March)

Event Time Altitude Azimuth Distance (km) Brightness Sun altitude
Rises 14:33:27 0° 239° (WSW) 2,640 5.3 -28.2°
Reaches altitude 10° 14:35:42 10° 237° (WSW) 1,751 4.2 -28.7°
Enters shadow 14:37:37 26° 231° (SW) 1,038 2.7 -29.2°
